Time,TemperatureF,DewpointF,PressureIn,WindDirection,WindDirectionDegrees,WindSpeedMPH,WindSpeedGustMPH,Humidity,HourlyPrecipIn,Conditions,Clouds,dailyrainin,SoftwareType,DateUTC
2013-02-11 00:00:00,67.8,60.7,30.16,SSE,151,0.0,5.0,78,0.00,,,0.00,Wunderground v.1.15,2013-02-11 05:00:00,
2013-02-11 00:05:00,67.9,60.8,30.16,SE,134,0.0,5.0,78,0.00,,,0.00,Wunderground v.1.15,2013-02-11 05:05:00,
2013-02-11 00:11:00,68.1,61.0,30.16,East,98,0.0,3.0,78,0.00,,,0.00,Wunderground v.1.15,2013-02-11 05:11:00,
2013-02-11 00:15:00,68.1,61.0,30.16,SE,139,0.0,3.0,78,0.00,,,0.00,Wunderground v.1.15,2013-02-11 05:15:00,
2013-02-11 00:20:00,68.1,61.0,30.16,SSE,167,0.0,1.0,78,0.00,,,0.00,Wunderground v.1.15,2013-02-11 05:20:00,
2013-02-11 00:26:00,68.3,61.2,30.16,South,191,2.0,5.0,78,0.00,,,0.00,Wunderground v.1.15,2013-02-11 05:26:00,
2013-02-11 00:32:00,68.3,60.8,30.15,SSE,148,2.0,3.0,77,0.00,,,0.00,Wunderground v.1.15,2013-02-11 05:32:00,
2013-02-11 00:38:00,68.3,60.8,30.15,South,172,5.0,5.0,77,0.00,,,0.00,Wunderground v.1.15,2013-02-11 05:38:00,
2013-02-11 00:44:00,68.3,60.4,30.15,SE,146,5.0,6.0,76,0.00,,,0.00,Wunderground v.1.15,2013-02-11 05:44:00,
2013-02-11 00:50:00,68.3,60.4,30.15,SSE,155,0.0,2.0,76,0.00,,,0.00,Wunderground v.1.15,2013-02-11 05:50:00,
2013-02-11 00:55:00,68.3,60.4,30.15,SSE,162,2.0,3.0,76,0.00,,,0.00,Wunderground v.1.15,2013-02-11 05:55:00,
2013-02-11 01:01:00,68.1,60.2,30.15,SE,135,0.0,2.0,76,0.00,,,0.00,Wunderground v.1.15,2013-02-11 06:01:00,
2013-02-11 01:07:00,68.1,60.2,30.15,SSE,150,0.0,2.0,76,0.00,,,0.00,Wunderground v.1.15,2013-02-11 06:07:00,
2013-02-11 01:13:00,67.9,60.1,30.15,ESE,117,6.0,6.0,76,0.00,,,0.00,Wunderground v.1.15,2013-02-11 06:13:00,
2013-02-11 01:19:00,67.9,60.1,30.15,SSE,158,0.0,6.0,76,0.00,,,0.00,Wunderground v.1.15,2013-02-11 06:19:00,
2013-02-11 01:25:00,67.9,60.1,30.15,SSE,156,0.0,5.0,76,0.00,,,0.00,Wunderground v.1.15,2013-02-11 06:25:00,
2013-02-11 01:31:00,67.9,60.4,30.15,SSE,150,0.0,1.0,77,0.00,,,0.00,Wunderground v.1.15,2013-02-11 06:31:00,
2013-02-11 01:37:00,67.8,60.3,30.15,SSE,158,0.0,1.0,77,0.00,,,0.00,Wunderground v.1.15,2013-02-11 06:37:00,
2013-02-11 01:43:00,67.6,60.1,30.15,SSE,151,0.0,0.0,77,0.00,,,0.00,Wunderground v.1.15,2013-02-11 06:43:00,
2013-02-11 01:49:00,67.4,60.3,30.15,SSE,158,0.0,0.0,78,0.00,,,0.00,Wunderground v.1.15,2013-02-11 06:49:00,
2013-02-11 01:54:00,67.3,60.2,30.15,SE,131,0.0,0.0,78,0.00,,,0.00,Wunderground v.1.15,2013-02-11 06:54:00,
2013-02-11 02:00:00,67.1,60.4,30.14,SE,139,0.0,0.0,79,0.00,,,0.00,Wunderground v.1.15,2013-02-11 07:00:00,
2013-02-11 02:05:00,66.9,60.2,30.14,SSE,161,0.0,0.0,79,0.00,,,0.00,Wunderground v.1.15,2013-02-11 07:05:00,
2013-02-11 02:10:00,66.9,60.2,30.14,South,179,0.0,0.0,79,0.00,,,0.00,Wunderground v.1.15,2013-02-11 07:10:00,
2013-02-11 02:15:00,66.8,60.1,30.14,SSE,148,0.0,0.0,79,0.00,,,0.00,Wunderground v.1.15,2013-02-11 07:15:00,
2013-02-11 02:20:00,66.8,60.1,30.14,SSE,158,0.0,0.0,79,0.00,,,0.00,Wunderground v.1.15,2013-02-11 07:20:00,
2013-02-11 02:25:00,66.8,60.4,30.14,SSE,160,2.0,3.0,80,0.00,,,0.00,Wunderground v.1.15,2013-02-11 07:25:00,
2013-02-11 02:30:00,66.9,60.2,30.13,South,169,0.0,4.0,79,0.00,,,0.00,Wunderground v.1.15,2013-02-11 07:30:00,
2013-02-11 02:36:00,66.9,60.2,30.13,South,174,2.0,4.0,79,0.00,,,0.00,Wunderground v.1.15,2013-02-11 07:36:00,
2013-02-11 02:41:00,66.9,60.2,30.13,SSE,162,3.0,3.0,79,0.00,,,0.00,Wunderground v.1.15,2013-02-11 07:41:00,
2013-02-11 02:46:00,67.1,60.4,30.13,SE,124,4.0,4.0,79,0.00,,,0.00,Wunderground v.1.15,2013-02-11 07:46:00,
2013-02-11 02:51:00,67.1,60.4,30.13,SSE,164,0.0,0.0,79,0.00,,,0.00,Wunderground v.1.15,2013-02-11 07:51:00,
2013-02-11 02:56:00,67.1,60.4,30.13,South,169,0.0,0.0,79,0.00,,,0.00,Wunderground v.1.15,2013-02-11 07:56:00,
2013-02-11 03:01:00,66.9,60.2,30.13,ESE,121,0.0,4.0,79,0.00,,,0.00,Wunderground v.1.15,2013-02-11 08:01:00,
2013-02-11 03:06:00,66.8,60.1,30.13,SE,145,1.0,4.0,79,0.00,,,0.00,Wunderground v.1.15,2013-02-11 08:06:00,
2013-02-11 03:11:00,66.8,60.4,30.13,SSE,149,0.0,0.0,80,0.00,,,0.00,Wunderground v.1.15,2013-02-11 08:11:00,
2013-02-11 03:16:00,66.8,60.4,30.13,SE,142,0.0,1.0,80,0.00,,,0.00,Wunderground v.1.15,2013-02-11 08:16:00,
2013-02-11 03:22:00,66.6,60.2,30.13,SSE,152,0.0,0.0,80,0.00,,,0.00,Wunderground v.1.15,2013-02-11 08:22:00,
2013-02-11 03:27:00,66.6,60.2,30.13,SSE,150,0.0,0.0,80,0.00,,,0.00,Wunderground v.1.15,2013-02-11 08:27:00,
2013-02-11 03:32:00,66.4,60.0,30.12,SSE,150,0.0,0.0,80,0.00,,,0.00,Wunderground v.1.15,2013-02-11 08:32:00,
2013-02-11 03:37:00,66.6,60.2,30.12,SE,141,0.0,0.0,80,0.00,,,0.00,Wunderground v.1.15,2013-02-11 08:37:00,
2013-02-11 03:42:00,66.6,60.2,30.12,SSE,154,0.0,0.0,80,0.00,,,0.00,Wunderground v.1.15,2013-02-11 08:42:00,
2013-02-11 03:47:00,66.6,60.2,30.12,SSE,153,0.0,0.0,80,0.00,,,0.00,Wunderground v.1.15,2013-02-11 08:47:00,
2013-02-11 03:52:00,66.6,60.2,30.12,SSE,152,0.0,1.0,80,0.00,,,0.00,Wunderground v.1.15,2013-02-11 08:52:00,
2013-02-11 03:57:00,66.6,60.6,30.12,SSE,147,0.0,1.0,81,0.00,,,0.00,Wunderground v.1.15,2013-02-11 08:57:00,
2013-02-11 04:02:00,66.4,60.4,30.11,SSE,158,0.0,0.0,81,0.00,,,0.00,Wunderground v.1.15,2013-02-11 09:02:00,
2013-02-11 04:07:00,66.4,60.4,30.11,SSE,148,0.0,0.0,81,0.00,,,0.00,Wunderground v.1.15,2013-02-11 09:07:00,
2013-02-11 04:12:00,66.3,60.6,30.11,SSW,196,0.0,0.0,82,0.00,,,0.00,Wunderground v.1.15,2013-02-11 09:12:00,
2013-02-11 04:18:00,66.1,60.4,30.11,SSE,163,0.0,0.0,82,0.00,,,0.00,Wunderground v.1.15,2013-02-11 09:18:00,
2013-02-11 04:23:00,66.1,60.8,30.11,SE,143,0.0,11.0,83,0.00,,,0.00,Wunderground v.1.15,2013-02-11 09:23:00,
2013-02-11 04:28:00,66.3,61.0,30.11,SSE,153,4.0,11.0,83,0.00,,,0.00,Wunderground v.1.15,2013-02-11 09:28:00,
2013-02-11 04:33:00,66.6,60.9,30.11,SSW,192,0.0,3.0,82,0.00,,,0.00,Wunderground v.1.15,2013-02-11 09:33:00,
2013-02-11 04:39:00,66.6,60.9,30.11,South,174,0.0,8.0,82,0.00,,,0.00,Wunderground v.1.15,2013-02-11 09:39:00,
2013-02-11 04:44:00,66.8,61.1,30.11,South,178,4.0,5.0,82,0.00,,,0.00,Wunderground v.1.15,2013-02-11 09:44:00,
2013-02-11 04:49:00,66.9,61.2,30.11,South,179,0.0,5.0,82,0.00,,,0.00,Wunderground v.1.15,2013-02-11 09:49:00,
2013-02-11 04:54:00,66.8,61.1,30.11,South,172,0.0,2.0,82,0.00,,,0.00,Wunderground v.1.15,2013-02-11 09:54:00,
2013-02-11 04:59:00,66.8,61.1,30.11,South,172,2.0,3.0,82,0.00,,,0.00,Wunderground v.1.15,2013-02-11 09:59:00,
2013-02-11 05:04:00,66.6,61.3,30.11,South,174,0.0,1.0,83,0.00,,,0.00,Wunderground v.1.15,2013-02-11 10:04:00,
2013-02-11 05:09:00,66.6,61.3,30.11,SE,139,0.0,2.0,83,0.00,,,0.00,Wunderground v.1.15,2013-02-11 10:09:00,
2013-02-11 05:14:00,66.6,61.3,30.12,SSE,162,0.0,6.0,83,0.00,,,0.00,Wunderground v.1.15,2013-02-11 10:14:00,
2013-02-11 05:19:00,66.6,61.3,30.12,South,177,0.0,6.0,83,0.00,,,0.00,Wunderground v.1.15,2013-02-11 10:19:00,
2013-02-11 05:24:00,66.6,61.6,30.12,SE,131,0.0,1.0,84,0.00,,,0.00,Wunderground v.1.15,2013-02-11 10:24:00,
2013-02-11 05:29:00,66.6,61.6,30.12,South,189,0.0,1.0,84,0.00,,,0.00,Wunderground v.1.15,2013-02-11 10:29:00,
2013-02-11 05:34:00,66.6,61.6,30.12,SSW,196,0.0,2.0,84,0.00,,,0.00,Wunderground v.1.15,2013-02-11 10:34:00,
2013-02-11 05:39:00,66.4,61.4,30.12,SSE,154,0.0,2.0,84,0.00,,,0.00,Wunderground v.1.15,2013-02-11 10:39:00,
2013-02-11 05:44:00,66.4,61.4,30.12,SSE,161,0.0,3.0,84,0.00,,,0.00,Wunderground v.1.15,2013-02-11 10:44:00,
2013-02-11 05:49:00,66.4,61.4,30.12,SSE,161,0.0,3.0,84,0.00,,,0.00,Wunderground v.1.15,2013-02-11 10:49:00,
2013-02-11 05:54:00,66.3,61.7,30.12,SSE,161,0.0,0.0,85,0.00,,,0.00,Wunderground v.1.15,2013-02-11 10:54:00,
2013-02-11 05:59:00,66.1,61.5,30.13,SSE,161,0.0,0.0,85,0.00,,,0.00,Wunderground v.1.15,2013-02-11 10:59:00,
2013-02-11 06:04:00,65.8,61.2,30.13,SSE,161,0.0,0.0,85,0.00,,,0.00,Wunderground v.1.15,2013-02-11 11:04:00,
2013-02-11 06:10:00,65.6,61.0,30.13,SSE,161,0.0,0.0,85,0.00,,,0.00,Wunderground v.1.15,2013-02-11 11:10:00,
2013-02-11 06:15:00,65.5,60.9,30.13,SSE,161,0.0,0.0,85,0.00,,,0.00,Wunderground v.1.15,2013-02-11 11:15:00,
2013-02-11 06:20:00,65.2,60.9,30.13,SSE,161,0.0,0.0,86,0.00,,,0.00,Wunderground v.1.15,2013-02-11 11:20:00,
2013-02-11 06:25:00,65.0,60.7,30.13,SSE,161,0.0,0.0,86,0.00,,,0.00,Wunderground v.1.15,2013-02-11 11:25:00,
2013-02-11 06:30:00,64.7,60.4,30.14,SSE,161,0.0,0.0,86,0.00,,,0.00,Wunderground v.1.15,2013-02-11 11:30:00,
2013-02-11 06:35:00,64.3,60.3,30.14,SSE,161,0.0,0.0,87,0.00,,,0.00,Wunderground v.1.15,2013-02-11 11:35:00,
2013-02-11 06:40:00,64.0,60.1,30.14,SSE,161,0.0,0.0,87,0.00,,,0.00,Wunderground v.1.15,2013-02-11 11:40:00,
2013-02-11 06:45:00,63.9,60.0,30.14,SSE,161,0.0,0.0,87,0.00,,,0.00,Wunderground v.1.15,2013-02-11 11:45:00,
2013-02-11 06:51:00,63.5,59.6,30.14,SSE,161,0.0,0.0,87,0.00,,,0.00,Wunderground v.1.15,2013-02-11 11:51:00,
2013-02-11 06:56:00,63.2,59.3,30.14,SSE,161,0.0,0.0,87,0.00,,,0.00,Wunderground v.1.15,2013-02-11 11:56:00,
2013-02-11 07:01:00,62.9,59.3,30.14,SSE,161,0.0,0.0,88,0.00,,,0.00,Wunderground v.1.15,2013-02-11 12:01:00,
2013-02-11 07:06:00,62.7,59.1,30.14,SSE,161,0.0,0.0,88,0.00,,,0.00,Wunderground v.1.15,2013-02-11 12:06:00,
2013-02-11 07:11:00,62.4,58.8,30.14,SSE,161,0.0,0.0,88,0.00,,,0.00,Wunderground v.1.15,2013-02-11 12:11:00,
2013-02-11 07:16:00,62.3,59.0,30.15,SSE,161,0.0,0.0,89,0.00,,,0.00,Wunderground v.1.15,2013-02-11 12:16:00,
2013-02-11 07:22:00,62.1,58.8,30.15,SSE,161,0.0,0.0,89,0.00,,,0.00,Wunderground v.1.15,2013-02-11 12:22:00,
2013-02-11 07:27:00,62.0,58.7,30.15,SSE,161,0.0,0.0,89,0.00,,,0.00,Wunderground v.1.15,2013-02-11 12:27:00,
2013-02-11 07:32:00,61.8,58.8,30.15,SSE,161,0.0,0.0,90,0.00,,,0.00,Wunderground v.1.15,2013-02-11 12:32:00,
2013-02-11 07:37:00,61.8,58.8,30.15,SSE,161,0.0,0.0,90,0.00,,,0.00,Wunderground v.1.15,2013-02-11 12:37:00,
2013-02-11 07:42:00,61.6,58.6,30.15,SSE,161,0.0,0.0,90,0.00,,,0.00,Wunderground v.1.15,2013-02-11 12:42:00,
2013-02-11 07:47:00,61.6,58.6,30.15,SSE,161,0.0,0.0,90,0.00,,,0.00,Wunderground v.1.15,2013-02-11 12:47:00,
2013-02-11 07:52:00,61.6,58.9,30.15,SSE,161,0.0,0.0,91,0.00,,,0.00,Wunderground v.1.15,2013-02-11 12:52:00,
2013-02-11 07:57:00,61.6,58.9,30.15,SSE,161,0.0,0.0,91,0.00,,,0.00,Wunderground v.1.15,2013-02-11 12:57:00,
2013-02-11 08:02:00,61.8,59.1,30.16,SSE,161,0.0,0.0,91,0.00,,,0.00,Wunderground v.1.15,2013-02-11 13:02:00,
2013-02-11 08:07:00,61.8,59.5,30.16,SSE,161,0.0,0.0,92,0.00,,,0.00,Wunderground v.1.15,2013-02-11 13:07:00,
2013-02-11 08:12:00,62.1,59.7,30.16,SSE,161,0.0,0.0,92,0.00,,,0.00,Wunderground v.1.15,2013-02-11 13:12:00,
2013-02-11 08:17:00,62.4,60.3,30.16,SSE,161,0.0,0.0,93,0.00,,,0.00,Wunderground v.1.15,2013-02-11 13:17:00,
2013-02-11 08:22:00,62.7,60.6,30.16,SSE,161,0.0,0.0,93,0.00,,,0.00,Wunderground v.1.15,2013-02-11 13:22:00,
2013-02-11 08:27:00,63.1,61.3,30.16,SSE,161,0.0,0.0,94,0.00,,,0.00,Wunderground v.1.15,2013-02-11 13:27:00,
2013-02-11 08:32:00,63.5,61.7,30.17,SSW,201,0.0,0.0,94,0.00,,,0.00,Wunderground v.1.15,2013-02-11 13:32:00,
2013-02-11 08:37:00,64.2,62.4,30.17,WSW,253,0.0,1.0,94,0.00,,,0.00,Wunderground v.1.15,2013-02-11 13:37:00,
2013-02-11 08:42:00,64.7,62.6,30.17,South,177,0.0,0.0,93,0.00,,,0.00,Wunderground v.1.15,2013-02-11 13:42:00,
2013-02-11 08:47:00,65.3,62.9,30.17,South,176,0.0,0.0,92,0.00,,,0.00,Wunderground v.1.15,2013-02-11 13:47:00,
2013-02-11 08:52:00,66.0,63.0,30.17,South,186,1.0,2.0,90,0.00,,,0.00,Wunderground v.1.15,2013-02-11 13:52:00,
2013-02-11 08:57:00,66.6,62.6,30.17,SSW,199,0.0,4.0,87,0.00,,,0.00,Wunderground v.1.15,2013-02-11 13:57:00,
2013-02-11 09:02:00,67.4,62.7,30.17,SSW,203,1.0,4.0,85,0.00,,,0.00,Wunderground v.1.15,2013-02-11 14:02:00,
2013-02-11 09:07:00,67.9,62.5,30.17,SW,229,0.0,4.0,83,0.00,,,0.00,Wunderground v.1.15,2013-02-11 14:07:00,
2013-02-11 09:12:00,68.6,62.9,30.17,SSE,156,2.0,4.0,82,0.00,,,0.00,Wunderground v.1.15,2013-02-11 14:12:00,
2013-02-11 09:17:00,69.1,62.3,30.17,South,181,0.0,5.0,79,0.00,,,0.00,Wunderground v.1.15,2013-02-11 14:17:00,
2013-02-11 09:22:00,69.6,62.4,30.17,South,184,0.0,4.0,78,0.00,,,0.00,Wunderground v.1.15,2013-02-11 14:22:00,
2013-02-11 09:27:00,70.1,62.2,30.17,South,191,4.0,5.0,76,0.00,,,0.00,Wunderground v.1.15,2013-02-11 14:27:00,
2013-02-11 09:32:00,70.8,62.1,30.18,SSW,202,3.0,4.0,74,0.00,,,0.00,Wunderground v.1.15,2013-02-11 14:32:00,
2013-02-11 09:38:00,71.5,62.0,30.18,ESE,120,4.0,6.0,72,0.00,,,0.00,Wunderground v.1.15,2013-02-11 14:38:00,
2013-02-11 09:43:00,72.1,62.2,30.18,SSE,150,0.0,9.0,71,0.00,,,0.00,Wunderground v.1.15,2013-02-11 14:43:00,
2013-02-11 09:48:00,72.7,62.3,30.18,SW,221,3.0,10.0,70,0.00,,,0.00,Wunderground v.1.15,2013-02-11 14:48:00,
2013-02-11 09:53:00,73.0,62.2,30.18,ESE,103,2.0,5.0,69,0.00,,,0.00,Wunderground v.1.15,2013-02-11 14:53:00,
2013-02-11 09:58:00,73.3,61.7,30.18,SSE,154,0.0,7.0,67,0.00,,,0.00,Wunderground v.1.15,2013-02-11 14:58:00,
2013-02-11 10:03:00,73.7,61.6,30.18,SSW,212,3.0,5.0,66,0.00,,,0.00,Wunderground v.1.15,2013-02-11 15:03:00,
2013-02-11 10:08:00,74.2,62.5,30.18,SSE,148,0.0,7.0,67,0.00,,,0.00,Wunderground v.1.15,2013-02-11 15:08:00,
2013-02-11 10:13:00,74.6,62.1,30.18,SSE,167,0.0,2.0,65,0.00,,,0.00,Wunderground v.1.15,2013-02-11 15:13:00,
2013-02-11 10:18:00,74.6,61.2,30.18,South,180,1.0,9.0,63,0.00,,,0.00,Wunderground v.1.15,2013-02-11 15:18:00,
2013-02-11 10:23:00,74.9,61.9,30.18,SSE,148,5.0,6.0,64,0.00,,,0.00,Wunderground v.1.15,2013-02-11 15:23:00,
2013-02-11 10:28:00,75.6,61.7,30.18,SW,219,5.0,6.0,62,0.00,,,0.00,Wunderground v.1.15,2013-02-11 15:28:00,
2013-02-11 10:33:00,76.5,62.0,30.18,SE,145,0.0,5.0,61,0.00,,,0.00,Wunderground v.1.15,2013-02-11 15:33:00,
2013-02-11 10:38:00,76.8,61.9,30.18,SSE,164,1.0,6.0,60,0.00,,,0.00,Wunderground v.1.15,2013-02-11 15:38:00,
2013-02-11 10:43:00,77.4,62.9,30.18,South,172,0.0,4.0,61,0.00,,,0.00,Wunderground v.1.15,2013-02-11 15:43:00,
2013-02-11 10:48:00,77.9,61.4,30.18,SSE,157,0.0,7.0,57,0.00,,,0.00,Wunderground v.1.15,2013-02-11 15:48:00,
2013-02-11 10:53:00,78.1,61.6,30.18,SE,127,0.0,5.0,57,0.00,,,0.00,Wunderground v.1.15,2013-02-11 15:53:00,
2013-02-11 10:58:00,77.9,61.4,30.18,SSE,165,5.0,9.0,57,0.00,,,0.00,Wunderground v.1.15,2013-02-11 15:58:00,
2013-02-11 11:03:00,78.3,61.8,30.17,SSW,205,7.0,7.0,57,0.00,,,0.00,Wunderground v.1.15,2013-02-11 16:03:00,
2013-02-11 11:08:00,77.9,60.9,30.17,South,188,4.0,9.0,56,0.00,,,0.00,Wunderground v.1.15,2013-02-11 16:08:00,
2013-02-11 11:13:00,77.6,61.7,30.17,SSW,200,0.0,3.0,58,0.00,,,0.00,Wunderground v.1.15,2013-02-11 16:13:00,
2013-02-11 11:19:00,78.1,61.6,30.17,SSE,163,3.0,6.0,57,0.00,,,0.00,Wunderground v.1.15,2013-02-11 16:19:00,
2013-02-11 11:24:00,78.6,62.1,30.17,SSE,158,0.0,9.0,57,0.00,,,0.00,Wunderground v.1.15,2013-02-11 16:24:00,
2013-02-11 11:29:00,79.4,61.8,30.17,SSW,198,3.0,9.0,55,0.00,,,0.00,Wunderground v.1.15,2013-02-11 16:29:00,
2013-02-11 11:34:00,80.1,60.9,30.16,SSE,163,0.0,6.0,52,0.00,,,0.00,Wunderground v.1.15,2013-02-11 16:34:00,
2013-02-11 11:39:00,80.3,61.6,30.16,SSW,197,5.0,10.0,53,0.00,,,0.00,Wunderground v.1.15,2013-02-11 16:39:00,
2013-02-11 11:44:00,80.7,60.9,30.16,SSE,153,0.0,11.0,51,0.00,,,0.00,Wunderground v.1.15,2013-02-11 16:44:00,
2013-02-11 11:49:00,80.9,60.5,30.15,South,169,0.0,11.0,50,0.00,,,0.00,Wunderground v.1.15,2013-02-11 16:49:00,
2013-02-11 11:54:00,81.1,61.3,30.15,SE,146,10.0,11.0,51,0.00,,,0.00,Wunderground v.1.15,2013-02-11 16:54:00,
2013-02-11 11:59:00,81.2,62.4,30.15,SE,129,0.0,11.0,53,0.00,,,0.00,Wunderground v.1.15,2013-02-11 16:59:00,
2013-02-11 12:04:00,81.2,61.4,30.15,SE,129,0.0,4.0,51,0.00,,,0.00,Wunderground v.1.15,2013-02-11 17:04:00,
2013-02-11 12:09:00,80.5,60.7,30.15,South,169,2.0,17.0,51,0.00,,,0.00,Wunderground v.1.15,2013-02-11 17:09:00,
2013-02-11 12:14:00,80.5,61.3,30.15,South,176,7.0,12.0,52,0.00,,,0.00,Wunderground v.1.15,2013-02-11 17:14:00,
2013-02-11 12:19:00,80.3,60.5,30.15,East,85,0.0,12.0,51,0.00,,,0.00,Wunderground v.1.15,2013-02-11 17:19:00,
2013-02-11 12:24:00,80.3,61.6,30.15,SSE,147,0.0,6.0,53,0.00,,,0.00,Wunderground v.1.15,2013-02-11 17:24:00,
2013-02-11 12:29:00,79.9,61.8,30.14,SSE,158,0.0,10.0,54,0.00,,,0.00,Wunderground v.1.15,2013-02-11 17:29:00,
2013-02-11 12:34:00,80.1,62.0,30.14,SSE,160,4.0,10.0,54,0.00,,,0.00,Wunderground v.1.15,2013-02-11 17:34:00,
2013-02-11 12:39:00,79.8,62.7,30.14,South,179,0.0,10.0,56,0.00,,,0.00,Wunderground v.1.15,2013-02-11 17:39:00,
2013-02-11 12:44:00,79.2,62.7,30.13,SSE,152,1.0,11.0,57,0.00,,,0.00,Wunderground v.1.15,2013-02-11 17:44:00,
2013-02-11 12:49:00,79.4,62.3,30.13,SE,127,7.0,11.0,56,0.00,,,0.00,Wunderground v.1.15,2013-02-11 17:49:00,
2013-02-11 12:54:00,79.2,62.1,30.13,SE,141,4.0,13.0,56,0.00,,,0.00,Wunderground v.1.15,2013-02-11 17:54:00,
2013-02-11 12:59:00,78.5,62.5,30.12,SE,142,0.0,13.0,58,0.00,,,0.00,Wunderground v.1.15,2013-02-11 17:59:00,
2013-02-11 13:04:00,78.5,62.5,30.12,SSE,162,2.0,10.0,58,0.00,,,0.00,Wunderground v.1.15,2013-02-11 18:04:00,
2013-02-11 13:09:00,78.5,62.0,30.12,SSE,157,3.0,12.0,57,0.00,,,0.00,Wunderground v.1.15,2013-02-11 18:09:00,
2013-02-11 13:14:00,78.8,63.3,30.11,SE,129,4.0,11.0,59,0.00,,,0.00,Wunderground v.1.15,2013-02-11 18:14:00,
2013-02-11 13:19:00,79.2,63.1,30.11,SSE,165,6.0,11.0,58,0.00,,,0.00,Wunderground v.1.15,2013-02-11 18:19:00,
2013-02-11 13:24:00,79.4,63.8,30.11,SSE,158,6.0,10.0,59,0.00,,,0.00,Wunderground v.1.15,2013-02-11 18:24:00,
2013-02-11 13:29:00,79.9,63.8,30.10,SE,129,3.0,12.0,58,0.00,,,0.00,Wunderground v.1.15,2013-02-11 18:29:00,
2013-02-11 13:34:00,80.3,64.2,30.10,ESE,114,0.0,13.0,58,0.00,,,0.00,Wunderground v.1.15,2013-02-11 18:34:00,
2013-02-11 13:39:00,80.3,64.2,30.10,SE,141,4.0,13.0,58,0.00,,,0.00,Wunderground v.1.15,2013-02-11 18:39:00,
2013-02-11 13:44:00,79.8,63.2,30.09,SE,145,2.0,11.0,57,0.00,,,0.00,Wunderground v.1.15,2013-02-11 18:44:00,
2013-02-11 13:49:00,79.6,63.5,30.09,South,176,0.0,11.0,58,0.00,,,0.00,Wunderground v.1.15,2013-02-11 18:49:00,
2013-02-11 13:54:00,79.6,63.0,30.09,SSE,164,1.0,16.0,57,0.00,,,0.00,Wunderground v.1.15,2013-02-11 18:54:00,
2013-02-11 13:59:00,79.8,62.7,30.09,SE,145,4.0,16.0,56,0.00,,,0.00,Wunderground v.1.15,2013-02-11 18:59:00,
2013-02-11 14:04:00,80.1,63.5,30.09,ESE,105,0.0,10.0,57,0.00,,,0.00,Wunderground v.1.15,2013-02-11 19:04:00,
2013-02-11 14:09:00,80.3,62.1,30.09,SE,126,13.0,13.0,54,0.00,,,0.00,Wunderground v.1.15,2013-02-11 19:09:00,
2013-02-11 14:14:00,80.5,62.8,30.08,SSE,148,6.0,11.0,55,0.00,,,0.00,Wunderground v.1.15,2013-02-11 19:14:00,
2013-02-11 14:19:00,80.1,62.0,30.08,SSE,157,4.0,15.0,54,0.00,,,0.00,Wunderground v.1.15,2013-02-11 19:19:00,
2013-02-11 14:24:00,79.6,61.5,30.08,ESE,108,3.0,11.0,54,0.00,,,0.00,Wunderground v.1.15,2013-02-11 19:24:00,
2013-02-11 14:29:00,79.6,62.0,30.08,SE,132,0.0,11.0,55,0.00,,,0.00,Wunderground v.1.15,2013-02-11 19:29:00,
2013-02-11 14:34:00,79.4,62.8,30.08,SSE,148,3.0,11.0,57,0.00,,,0.00,Wunderground v.1.15,2013-02-11 19:34:00,
2013-02-11 14:39:00,79.4,62.8,30.08,SE,139,6.0,16.0,57,0.00,,,0.00,Wunderground v.1.15,2013-02-11 19:39:00,
2013-02-11 14:44:00,78.6,62.1,30.07,SE,132,0.0,14.0,57,0.00,,,0.00,Wunderground v.1.15,2013-02-11 19:44:00,
2013-02-11 14:49:00,78.6,62.6,30.07,SSE,148,0.0,14.0,58,0.00,,,0.00,Wunderground v.1.15,2013-02-11 19:49:00,
2013-02-11 14:54:00,78.3,62.3,30.07,SSE,165,4.0,14.0,58,0.00,,,0.00,Wunderground v.1.15,2013-02-11 19:54:00,
2013-02-11 14:59:00,78.3,62.3,30.07,SE,137,3.0,14.0,58,0.00,,,0.00,Wunderground v.1.15,2013-02-11 19:59:00,
2013-02-11 15:04:00,78.1,62.1,30.07,SSE,157,7.0,14.0,58,0.00,,,0.00,Wunderground v.1.15,2013-02-11 20:04:00,
2013-02-11 15:09:00,78.1,62.6,30.07,SE,135,1.0,15.0,59,0.00,,,0.00,Wunderground v.1.15,2013-02-11 20:09:00,
2013-02-11 15:14:00,78.1,62.6,30.06,SE,144,7.0,13.0,59,0.00,,,0.00,Wunderground v.1.15,2013-02-11 20:14:00,
2013-02-11 15:19:00,78.1,62.6,30.06,SE,141,4.0,16.0,59,0.00,,,0.00,Wunderground v.1.15,2013-02-11 20:19:00,
2013-02-11 15:25:00,77.9,62.4,30.06,SE,133,5.0,17.0,59,0.00,,,0.00,Wunderground v.1.15,2013-02-11 20:25:00,
2013-02-11 15:30:00,77.9,62.9,30.06,SSE,158,0.0,4.0,60,0.00,,,0.00,Wunderground v.1.15,2013-02-11 20:30:00,
2013-02-11 15:35:00,78.1,62.6,30.06,SSE,159,3.0,11.0,59,0.00,,,0.00,Wunderground v.1.15,2013-02-11 20:35:00,
2013-02-11 15:40:00,78.3,62.8,30.06,SSE,148,3.0,3.0,59,0.00,,,0.00,Wunderground v.1.15,2013-02-11 20:40:00,
2013-02-11 15:45:00,78.3,63.3,30.06,ESE,105,0.0,11.0,60,0.00,,,0.00,Wunderground v.1.15,2013-02-11 20:45:00,
2013-02-11 15:50:00,78.3,63.3,30.06,SSE,164,3.0,4.0,60,0.00,,,0.00,Wunderground v.1.15,2013-02-11 20:50:00,
2013-02-11 15:55:00,77.9,63.4,30.06,SSE,158,5.0,14.0,61,0.00,,,0.00,Wunderground v.1.15,2013-02-11 20:55:00,
2013-02-11 16:00:00,77.7,63.2,30.06,South,169,0.0,4.0,61,0.00,,,0.00,Wunderground v.1.15,2013-02-11 21:00:00,
2013-02-11 16:05:00,77.6,63.1,30.06,SSE,151,4.0,6.0,61,0.00,,,0.00,Wunderground v.1.15,2013-02-11 21:05:00,
2013-02-11 16:10:00,77.6,63.5,30.06,South,172,0.0,7.0,62,0.00,,,0.00,Wunderground v.1.15,2013-02-11 21:10:00,
2013-02-11 16:15:00,77.2,63.2,30.06,SE,138,2.0,11.0,62,0.00,,,0.00,Wunderground v.1.15,2013-02-11 21:15:00,
2013-02-11 16:20:00,76.7,63.2,30.06,SSE,161,3.0,5.0,63,0.00,,,0.00,Wunderground v.1.15,2013-02-11 21:20:00,
2013-02-11 16:25:00,76.5,63.9,30.06,SE,146,1.0,8.0,65,0.00,,,0.00,Wunderground v.1.15,2013-02-11 21:25:00,
2013-02-11 16:31:00,76.3,63.7,30.06,SSE,159,0.0,7.0,65,0.00,,,0.00,Wunderground v.1.15,2013-02-11 21:31:00,
2013-02-11 16:36:00,76.0,63.4,30.06,SE,136,4.0,13.0,65,0.00,,,0.00,Wunderground v.1.15,2013-02-11 21:36:00,
2013-02-11 16:41:00,75.8,63.6,30.06,SW,217,5.0,9.0,66,0.00,,,0.00,Wunderground v.1.15,2013-02-11 21:41:00,
2013-02-11 16:46:00,75.8,63.6,30.06,SSE,167,4.0,11.0,66,0.00,,,0.00,Wunderground v.1.15,2013-02-11 21:46:00,
2013-02-11 16:51:00,75.8,63.6,30.06,SSE,147,0.0,7.0,66,0.00,,,0.00,Wunderground v.1.15,2013-02-11 21:51:00,
2013-02-11 16:57:00,75.8,64.1,30.06,SSE,151,0.0,7.0,67,0.00,,,0.00,Wunderground v.1.15,2013-02-11 21:57:00,
2013-02-11 17:02:00,75.6,63.9,30.05,SE,139,1.0,5.0,67,0.00,,,0.00,Wunderground v.1.15,2013-02-11 22:02:00,
2013-02-11 17:07:00,75.3,63.6,30.05,SE,146,2.0,12.0,67,0.00,,,0.00,Wunderground v.1.15,2013-02-11 22:07:00,
2013-02-11 17:12:00,75.1,63.8,30.05,SSE,163,5.0,8.0,68,0.00,,,0.00,Wunderground v.1.15,2013-02-11 22:12:00,
2013-02-11 17:17:00,74.7,63.4,30.06,SSE,167,4.0,11.0,68,0.00,,,0.00,Wunderground v.1.15,2013-02-11 22:17:00,
2013-02-11 17:22:00,74.6,63.8,30.06,SSE,165,0.0,6.0,69,0.00,,,0.00,Wunderground v.1.15,2013-02-11 22:22:00,
2013-02-11 17:27:00,74.4,64.0,30.06,SSE,162,0.0,7.0,70,0.00,,,0.00,Wunderground v.1.15,2013-02-11 22:27:00,
2013-02-11 17:32:00,74.2,63.8,30.06,SSE,155,2.0,10.0,70,0.00,,,0.00,Wunderground v.1.15,2013-02-11 22:32:00,
2013-02-11 17:37:00,73.9,63.5,30.06,SSE,151,7.0,11.0,70,0.00,,,0.00,Wunderground v.1.15,2013-02-11 22:37:00,
2013-02-11 17:42:00,73.7,63.7,30.06,South,177,0.0,6.0,71,0.00,,,0.00,Wunderground v.1.15,2013-02-11 22:42:00,
2013-02-11 17:47:00,73.5,63.9,30.05,South,184,1.0,9.0,72,0.00,,,0.00,Wunderground v.1.15,2013-02-11 22:47:00,
2013-02-11 17:52:00,73.2,63.6,30.05,ESE,118,3.0,10.0,72,0.00,,,0.00,Wunderground v.1.15,2013-02-11 22:52:00,
2013-02-11 17:57:00,73.0,63.8,30.05,SSE,168,4.0,10.0,73,0.00,,,0.00,Wunderground v.1.15,2013-02-11 22:57:00,
2013-02-11 18:02:00,72.8,63.6,30.05,SSE,154,4.0,7.0,73,0.00,,,0.00,Wunderground v.1.15,2013-02-11 23:02:00,
2013-02-11 18:07:00,72.5,63.7,30.05,SSW,203,0.0,8.0,74,0.00,,,0.00,Wunderground v.1.15,2013-02-11 23:07:00,
2013-02-11 18:12:00,72.3,63.5,30.05,SSE,158,6.0,6.0,74,0.00,,,0.00,Wunderground v.1.15,2013-02-11 23:12:00,
2013-02-11 18:17:00,72.1,63.4,30.06,SSE,154,3.0,10.0,74,0.00,,,0.00,Wunderground v.1.15,2013-02-11 23:17:00,
2013-02-11 18:22:00,72.0,63.6,30.06,SE,141,0.0,4.0,75,0.00,,,0.00,Wunderground v.1.15,2013-02-11 23:22:00,
2013-02-11 18:27:00,71.8,63.4,30.06,South,172,0.0,9.0,75,0.00,,,0.00,Wunderground v.1.15,2013-02-11 23:27:00,
2013-02-11 18:32:00,71.8,63.8,30.06,South,176,4.0,7.0,76,0.00,,,0.00,Wunderground v.1.15,2013-02-11 23:32:00,
2013-02-11 18:37:00,71.6,63.6,30.06,SSE,163,5.0,9.0,76,0.00,,,0.00,Wunderground v.1.15,2013-02-11 23:37:00,
2013-02-11 18:42:00,71.6,63.6,30.06,SSE,163,1.0,8.0,76,0.00,,,0.00,Wunderground v.1.15,2013-02-11 23:42:00,
2013-02-11 18:47:00,71.5,63.5,30.06,SE,136,0.0,8.0,76,0.00,,,0.00,Wunderground v.1.15,2013-02-11 23:47:00,
2013-02-11 18:52:00,71.5,63.9,30.06,SSE,155,0.0,4.0,77,0.00,,,0.00,Wunderground v.1.15,2013-02-11 23:52:00,
2013-02-11 18:57:00,71.3,63.7,30.06,South,176,0.0,5.0,77,0.00,,,0.00,Wunderground v.1.15,2013-02-11 23:57:00,
2013-02-11 19:02:00,71.3,63.7,30.07,SSE,153,0.0,7.0,77,0.00,,,0.00,Wunderground v.1.15,2013-02-12 00:02:00,
2013-02-11 19:07:00,71.1,63.5,30.07,South,170,4.0,7.0,77,0.00,,,0.00,Wunderground v.1.15,2013-02-12 00:07:00,
2013-02-11 19:12:00,71.1,63.5,30.07,SSE,158,3.0,9.0,77,0.00,,,0.00,Wunderground v.1.15,2013-02-12 00:12:00,
2013-02-11 19:17:00,70.9,63.3,30.07,SSE,154,2.0,9.0,77,0.00,,,0.00,Wunderground v.1.15,2013-02-12 00:17:00,
2013-02-11 19:22:00,70.9,63.3,30.07,South,186,0.0,3.0,77,0.00,,,0.00,Wunderground v.1.15,2013-02-12 00:22:00,
2013-02-11 19:27:00,70.8,63.2,30.07,SE,146,1.0,5.0,77,0.00,,,0.00,Wunderground v.1.15,2013-02-12 00:27:00,
2013-02-11 19:32:00,70.6,63.0,30.07,SSE,153,4.0,6.0,77,0.00,,,0.00,Wunderground v.1.15,2013-02-12 00:32:00,
2013-02-11 19:37:00,70.6,63.0,30.07,SE,138,1.0,6.0,77,0.00,,,0.00,Wunderground v.1.15,2013-02-12 00:37:00,
2013-02-11 19:42:00,70.4,62.8,30.07,SSE,156,3.0,4.0,77,0.00,,,0.00,Wunderground v.1.15,2013-02-12 00:42:00,
2013-02-11 19:47:00,70.4,62.8,30.07,SSW,195,0.0,5.0,77,0.00,,,0.00,Wunderground v.1.15,2013-02-12 00:47:00,
2013-02-11 19:52:00,70.3,62.7,30.07,SSE,158,0.0,4.0,77,0.00,,,0.00,Wunderground v.1.15,2013-02-12 00:52:00,
2013-02-11 19:57:00,70.3,62.7,30.07,SSE,163,6.0,9.0,77,0.00,,,0.00,Wunderground v.1.15,2013-02-12 00:57:00,
2013-02-11 20:02:00,70.1,62.6,30.08,South,184,0.0,6.0,77,0.00,,,0.00,Wunderground v.1.15,2013-02-12 01:02:00,
2013-02-11 20:07:00,70.1,62.6,30.08,South,185,3.0,6.0,77,0.00,,,0.00,Wunderground v.1.15,2013-02-12 01:07:00,
2013-02-11 20:13:00,69.9,62.4,30.08,SSE,150,4.0,4.0,77,0.00,,,0.00,Wunderground v.1.15,2013-02-12 01:13:00,
2013-02-11 20:18:00,69.9,62.4,30.08,South,176,2.0,6.0,77,0.00,,,0.00,Wunderground v.1.15,2013-02-12 01:18:00,
2013-02-11 20:23:00,69.8,62.3,30.08,South,171,0.0,1.0,77,0.00,,,0.00,Wunderground v.1.15,2013-02-12 01:23:00,
2013-02-11 20:28:00,69.8,62.3,30.08,SSE,160,3.0,5.0,77,0.00,,,0.00,Wunderground v.1.15,2013-02-12 01:28:00,
2013-02-11 20:33:00,69.8,62.3,30.08,SSE,167,0.0,4.0,77,0.00,,,0.00,Wunderground v.1.15,2013-02-12 01:33:00,
2013-02-11 20:38:00,69.6,62.1,30.08,South,179,0.0,4.0,77,0.00,,,0.00,Wunderground v.1.15,2013-02-12 01:38:00,
2013-02-11 20:43:00,69.6,62.4,30.08,SSW,193,0.0,5.0,78,0.00,,,0.00,Wunderground v.1.15,2013-02-12 01:43:00,
2013-02-11 20:48:00,69.4,62.2,30.08,South,181,1.0,5.0,78,0.00,,,0.00,Wunderground v.1.15,2013-02-12 01:48:00,
2013-02-11 20:53:00,69.4,62.2,30.08,SSW,193,2.0,6.0,78,0.00,,,0.00,Wunderground v.1.15,2013-02-12 01:53:00,
2013-02-11 20:58:00,69.4,62.2,30.08,South,188,0.0,6.0,78,0.00,,,0.00,Wunderground v.1.15,2013-02-12 01:58:00,
2013-02-11 21:03:00,69.4,62.2,30.08,SSW,205,3.0,5.0,78,0.00,,,0.00,Wunderground v.1.15,2013-02-12 02:03:00,
2013-02-11 21:08:00,69.4,62.2,30.08,SSW,195,4.0,9.0,78,0.00,,,0.00,Wunderground v.1.15,2013-02-12 02:08:00,
2013-02-11 21:13:00,69.4,62.2,30.08,SW,224,0.0,9.0,78,0.00,,,0.00,Wunderground v.1.15,2013-02-12 02:13:00,
2013-02-11 21:18:00,69.4,62.2,30.08,SSE,158,4.0,9.0,78,0.00,,,0.00,Wunderground v.1.15,2013-02-12 02:18:00,
2013-02-11 21:23:00,69.4,62.2,30.08,SSE,161,3.0,6.0,78,0.00,,,0.00,Wunderground v.1.15,2013-02-12 02:23:00,
2013-02-11 21:28:00,69.4,62.2,30.08,South,173,2.0,7.0,78,0.00,,,0.00,Wunderground v.1.15,2013-02-12 02:28:00,
2013-02-11 21:33:00,69.3,62.1,30.08,South,176,0.0,7.0,78,0.00,,,0.00,Wunderground v.1.15,2013-02-12 02:33:00,
2013-02-11 21:39:00,69.3,62.1,30.08,SSE,155,2.0,10.0,78,0.00,,,0.00,Wunderground v.1.15,2013-02-12 02:39:00,
2013-02-11 21:44:00,69.1,62.3,30.08,South,190,0.0,5.0,79,0.00,,,0.00,Wunderground v.1.15,2013-02-12 02:44:00,
2013-02-11 21:49:00,69.1,62.3,30.08,South,179,0.0,5.0,79,0.00,,,0.00,Wunderground v.1.15,2013-02-12 02:49:00,
2013-02-11 21:54:00,68.9,62.1,30.08,SSW,199,0.0,6.0,79,0.00,,,0.00,Wunderground v.1.15,2013-02-12 02:54:00,
2013-02-11 21:59:00,68.9,62.1,30.08,SSE,167,4.0,6.0,79,0.00,,,0.00,Wunderground v.1.15,2013-02-12 02:59:00,
2013-02-11 22:04:00,68.9,62.1,30.08,SW,221,0.0,6.0,79,0.00,,,0.00,Wunderground v.1.15,2013-02-12 03:04:00,
2013-02-11 22:09:00,69.1,62.3,30.08,South,173,0.0,6.0,79,0.00,,,0.00,Wunderground v.1.15,2013-02-12 03:09:00,
2013-02-11 22:14:00,69.1,62.3,30.08,SSW,195,0.0,3.0,79,0.00,,,0.00,Wunderground v.1.15,2013-02-12 03:14:00,
2013-02-11 22:19:00,69.3,62.5,30.08,SSW,193,0.0,5.0,79,0.00,,,0.00,Wunderground v.1.15,2013-02-12 03:19:00,
2013-02-11 22:25:00,69.3,62.5,30.08,South,180,0.0,2.0,79,0.00,,,0.00,Wunderground v.1.15,2013-02-12 03:25:00,
2013-02-11 22:30:00,69.1,62.3,30.08,SSE,158,2.0,3.0,79,0.00,,,0.00,Wunderground v.1.15,2013-02-12 03:30:00,
2013-02-11 22:35:00,69.1,62.3,30.08,SSW,212,0.0,7.0,79,0.00,,,0.00,Wunderground v.1.15,2013-02-12 03:35:00,
2013-02-11 22:40:00,68.9,62.5,30.08,SW,215,0.0,1.0,80,0.00,,,0.00,Wunderground v.1.15,2013-02-12 03:40:00,
2013-02-11 22:45:00,68.8,62.4,30.08,South,191,0.0,4.0,80,0.00,,,0.00,Wunderground v.1.15,2013-02-12 03:45:00,
2013-02-11 22:51:00,68.8,62.4,30.08,South,190,0.0,0.0,80,0.00,,,0.00,Wunderground v.1.15,2013-02-12 03:51:00,
2013-02-11 22:56:00,68.6,62.5,30.08,SSW,195,0.0,5.0,81,0.00,,,0.00,Wunderground v.1.15,2013-02-12 03:56:00,
2013-02-11 23:01:00,68.6,62.5,30.08,South,179,0.0,1.0,81,0.00,,,0.00,Wunderground v.1.15,2013-02-12 04:01:00,
2013-02-11 23:06:00,68.6,62.5,30.08,SSW,193,0.0,5.0,81,0.00,,,0.00,Wunderground v.1.15,2013-02-12 04:06:00,
2013-02-11 23:12:00,68.4,62.7,30.08,South,171,0.0,3.0,82,0.00,,,0.00,Wunderground v.1.15,2013-02-12 04:12:00,
2013-02-11 23:17:00,68.4,62.7,30.08,SSE,165,0.0,6.0,82,0.00,,,0.00,Wunderground v.1.15,2013-02-12 04:17:00,
2013-02-11 23:22:00,68.6,62.9,30.08,South,179,0.0,0.0,82,0.00,,,0.00,Wunderground v.1.15,2013-02-12 04:22:00,
2013-02-11 23:27:00,68.6,62.9,30.08,South,182,1.0,1.0,82,0.00,,,0.00,Wunderground v.1.15,2013-02-12 04:27:00,
2013-02-11 23:32:00,68.6,62.9,30.07,South,188,0.0,0.0,82,0.00,,,0.00,Wunderground v.1.15,2013-02-12 04:32:00,
2013-02-11 23:37:00,68.8,63.1,30.07,SSW,212,0.0,1.0,82,0.00,,,0.00,Wunderground v.1.15,2013-02-12 04:37:00,
2013-02-11 23:42:00,68.8,63.1,30.07,SSW,200,0.0,3.0,82,0.00,,,0.00,Wunderground v.1.15,2013-02-12 04:42:00,
2013-02-11 23:47:00,68.8,63.1,30.07,WSW,237,0.0,3.0,82,0.00,,,0.00,Wunderground v.1.15,2013-02-12 04:47:00,
2013-02-11 23:52:00,68.8,63.1,30.07,SSW,194,0.0,4.0,82,0.00,,,0.00,Wunderground v.1.15,2013-02-12 04:52:00,
2013-02-11 23:57:00,68.8,63.1,30.07,SSW,197,0.0,4.0,82,0.00,,,0.00,Wunderground v.1.15,2013-02-12 04:57:00,